Location: Deva
(45.8833°N, 22.9000°E)
Time: 22:28:54
(UTC+00:00)

Daily predictions for brighter satellites

Satellite Brightness Start Highest point End
(mag) Time Altitude Azimuth Time Altitude Azimuth Time Altitude Azimuth
USA 267 4.0 15:31:49 10° ENE 15:37:38 36° N 15:43:27 10° NW
Cosmos 2237 Rocket 4.1 15:35:04 10° W 15:39:28 23° NW 15:43:54 10° N
SMAP 3.1 15:35:46 10° SSE 15:40:23 68° ENE 15:45:02 10° N
SL-16 R/B 2.7 15:37:07 10° SW 15:42:42 61° WNW 15:48:20 10° NNE
Cosmos 1371 Rocket 4.1 15:39:12 10° S 15:44:25 64° ESE 15:49:38 10° NNE
Cosmos 968 Rocket 4.1 15:40:25 10° N 15:45:06 34° ENE 15:49:43 10° SE
Cosmos 1666 Rocket 3.6 15:40:44 10° N 15:45:09 58° E 15:49:31 10° SSE
COSMO-SKYMED 1 4.3 15:43:26 10° ENE 15:45:19 13° E 15:47:12 10° ESE
IRS-1C 4.3 15:40:25 10° SE 15:45:34 54° ENE 15:50:45 10° N
USA 276 3.7 15:48:40 10° S 15:50:03 14° SE 15:51:31 10° ESE
CORIOLIS 4.2 15:45:32 10° SSE 15:50:56 90° ENE 15:56:24 10° NNW
Nadezhda 1 Rocket 4.1 15:44:54 10° S 15:50:58 81° W 15:57:04 10° N
Cosmos 1624 Rocket 4.0 15:46:34 10° SSW 15:51:48 75° ESE 15:57:06 10° NNE
NOSS 2-3 (D) 4.3 15:47:05 10° NW 15:52:12 70° NE 15:59:07 10° SE
Cosmos 1190 Rocket 4.3 15:47:14 10° NNW 15:52:25 75° WSW 15:57:35 10° SSE
Cosmos 1328 Rocket 3.6 15:49:12 10° S 15:53:29 63° E 15:57:51 10° NNE
OPS 8737 4.1 15:53:37 10° NNW 15:56:40 60° NE 15:59:45 10° SE
SL-4 R/B 2.9 15:54:08 10° WNW 15:57:59 48° SW 16:01:42 10° SE
Thor Agena Rocket 3.6 15:53:15 10° SSE 15:58:17 84° WSW 16:03:21 10° NNW
SPOT 1/Viking Rocket 3.9 15:53:54 10° SE 15:58:44 42° ENE 16:03:34 10° N
NOSS 2-3 (C) 4.3 15:53:56 10° NW 15:59:02 69° NE 16:06:09 10° SE
SJ-12 3.7 15:55:30 10° SSE 15:59:14 58° ENE 16:03:01 10° N
SKYMED 2 4.4 15:57:12 10° NNE 16:01:04 30° E 16:04:55 10° SSE
AQUARIUS 4.1 15:59:18 10° SSE 16:03:38 64° ENE 16:08:02 10° N
SL-8 Rocket 4.0 15:58:22 10° N 16:04:34 67° E 16:10:41 10° SSE
Cosmos 676 Rocket 4.0 16:01:15 10° NNW 16:06:28 90° ENE 16:11:41 10° SSE
NOSS 3-4 (A) 3.5 16:05:26 10° SSW 16:10:24 46° ESE 16:15:15 13° NE
NOSS 3-4 (C) 3.5 16:05:34 10° S 16:10:33 46° ESE 16:15:24 13° NE
SAR-Lupe-4 3.6 16:07:34 10° SSE 16:11:04 53° ENE 16:14:34 10° N
Cosmos 1110 Rocket 4.3 16:06:30 10° S 16:11:25 44° ESE 16:16:20 10° NNE
Cosmos 371 Rocket 4.3 16:07:10 10° NNW 16:11:47 49° WSW 16:16:20 10° S
NOSS 2-3 (E) 4.5 16:09:23 10° NW 16:14:39 82° SW 16:21:49 10° SSE
Meteor 1-15 Rocket 4.3 16:09:49 10° N 16:15:47 82° E 16:21:40 10° SSE
Cosmos 864 Rocket 4.4 16:10:47 10° N 16:17:00 74° E 16:23:15 10° SSE
Cosmos 1515 Rocket 3.8 16:12:58 10° SSE 16:17:10 46° E 16:21:25 10° NNE
YAOGAN 1 3.0 16:15:35 10° SE 16:19:29 37° ENE 16:23:26 10° N
SJ 16-02 2.9 16:16:53 10° NW 16:20:52 38° WSW 16:24:50 10° S
Resurs 01 Rocket 2.9 16:19:02 14° E 16:21:09 19° ENE 16:24:16 10° NNE
ATLAS 3B R/B 4.4 16:14:48 10° WNW 16:21:11 27° NNW 16:27:39 10° NNE
Cosmos 1452 Rocket 4.0 16:16:56 10° S 16:21:45 39° ESE 16:26:05 13° NE
Cosmos 292 Rocket 4.4 16:17:55 10° N 16:22:09 32° ENE 16:26:21 10° ESE
Meteor 1-13 Rocket 4.5 16:19:21 10° SSW 16:25:02 77° W 16:30:54 10° N
PSLV R/B 4.2 16:21:38 10° SE 16:25:17 31° ENE 16:28:59 10° N
Okean 3 4.5 16:23:11 10° SE 16:26:24 23° E 16:27:15 22° ENE
OPS 6432 4.2 16:23:33 10° NNW 16:26:54 60° NE 16:29:58 11° SE
SJ-6F 4.3 16:23:01 10° SSE 16:27:05 90° ENE 16:31:09 10° NNW
Cosmos 1821 Rocket 4.0 16:22:39 10° N 16:28:49 60° ENE 16:34:52 10° SSE
Cosmos 1953 2.0 16:25:29 10° N 16:29:12 86° E 16:32:53 10° S
Cosmos 1340 Rocket 3.5 16:25:53 10° N 16:29:15 29° ENE 16:32:37 10° SE
Cosmos 1703 2.7 16:26:05 10° S 16:29:23 75° E 16:32:43 10° NNE
IRS-P3 4.1 16:24:26 10° SSE 16:29:45 89° ENE 16:35:06 10° NNW
CZ-4 R/B 4.2 16:29:28 10° SSE 16:33:24 79° ENE 16:37:23 10° N
ATLAS 5 CENTAUR R/B 2.0 16:31:41 10° WSW 16:34:27 34° NW 16:36:34 16° NNE
CZ-2D R/B 4.3 16:35:01 10° S 16:37:58 38° W 16:40:56 10° NNW
Cosmos 1470 Rocket 3.8 16:34:31 10° NNW 16:38:49 72° W 16:43:08 10° S
BREEZE M DEB (TANK) 3.6 16:36:58 10° W 16:39:07 37° SSW 16:43:11 10° SE
Cosmos 2181 Rocket 3.9 16:33:38 10° S 16:39:44 77° E 16:45:58 10° N
SL-16 R/B 4.2 16:35:31 10° N 16:40:46 30° WNW 16:46:00 10° WSW
Spot 4 Rocket 4.0 16:35:49 10° SSE 16:40:49 59° ENE 16:45:52 10° N
Cosmos 1603 3.6 16:36:48 10° SSW 16:42:26 77° ESE 16:47:20 14° NNE
Cosmos 1697 Rocket 4.0 16:39:25 10° N 16:43:30 20° NE 16:43:30 20° NE
USA 215 3.5 16:41:47 22° ENE 16:46:00 52° SE 16:52:19 10° SSW
Cosmos 1933 Rocket 3.5 16:42:35 10° N 16:46:58 63° E 16:51:17 10° SSE
USA 59 Rocket 1.7 16:46:04 10° N 16:46:44 13° N 16:46:44 13° N
Cosmos 1833 Rocket 4.0 16:49:24 10° SSE 16:52:21 20° ESE 16:52:21 20° ESE
ISS -3.8 16:50:27 10° SW 16:53:46 74° SSE 16:54:17 58° E
Cosmos 332 Rocket 4.2 16:54:52 10° NNW 16:59:36 63° WSW 17:04:19 10° S
Okean 2 3.1 16:56:33 10° S 17:00:24 84° E 17:02:36 25° NNE
ARIANE 5 R/B 4.3 16:57:02 10° SSW 17:01:44 34° W 17:06:28 10° NNW
CZ-2D R/B 3.4 17:00:51 10° S 17:04:42 71° WSW 17:08:31 10° NNW
DNEPR-1 R/B 3.4 17:00:53 10° SW 17:05:22 89° WNW 17:06:47 42° NE
Cosmos 1943 4.5 17:01:14 10° WSW 17:06:28 38° NW 17:11:44 10° NNE
RESURS DK-1 2.3 17:03:05 10° SSW 17:06:58 56° ESE 17:07:01 56° ESE
Meteor 2-8 Rocket 4.4 17:03:12 10° N 17:09:15 57° ENE 17:15:18 10° SSE
Meteor 2-15 Rocket 4.3 17:06:41 10° N 17:12:52 86° E 17:19:00 10° S
Cosmos 1869 Rocket 3.4 17:09:09 10° N 17:13:35 84° E 17:17:56 10° S
Cosmos 1934 Rocket 4.1 17:07:40 10° N 17:13:37 50° ENE 17:19:36 10° SSE
SL-24 R/B - RUBIN 2 3.3 17:09:18 10° NW 17:13:40 80° NE 17:14:45 50° SE
Cosmos 2360 4.1 17:12:08 10° NNW 17:17:49 63° ENE 17:20:02 37° SE
CARTOSAT-1 3.3 17:13:45 10° SSE 17:17:57 88° ENE 17:22:12 10° NNW
Radarsat Rocket 4.1 17:11:54 10° SSE 17:18:17 78° WSW 17:24:13 10° NNW
USA 267 3.3 17:17:29 38° E 17:19:58 62° NNE 17:26:25 10° NW
USA 238 DEB 4.4 17:13:11 10° NW 17:20:35 65° WSW 17:28:35 10° SSE
USA 238 4.4 17:13:18 10° NW 17:20:42 65° WSW 17:28:42 10° SSE
COSMO-SKYMED 1 2.8 17:18:21 21° N 17:21:01 61° WNW 17:25:03 10° SSW
Resurs 1-3 4.5 17:16:59 10° S 17:21:08 48° W 17:25:20 10° NNW
Cosmos 2239 Rocket 4.4 17:15:54 10° N 17:22:13 87° W 17:28:27 10° S
USA 276 4.3 17:20:14 10° WSW 17:21:09 20° WSW 17:21:09 20° WSW
DMSP B5D1-3 4.3 17:25:23 40° NNE 17:27:13 78° ESE 17:32:17 10° S
Nadezhda 3 Rocket 3.9 17:21:39 10° S 17:27:48 87° W 17:34:00 10° N
IRAS Rocket 4.2 17:27:48 10° SSE 17:33:18 80° WSW 17:38:53 10° NNW
BREEZE-M DEB (TANK) 3.5 17:34:44 10° WNW 17:38:13 51° NNW 17:38:13 51° NNW
Cosmos 1302 Rocket 4.2 17:41:19 10° SSW 17:46:33 71° WNW 17:47:39 54° N
Cosmos 1656 4.2 17:50:44 10° NNW 17:56:12 55° WSW 17:59:09 26° S
Resurs 01 Rocket 2.5 17:56:23 42° SW 17:57:11 47° W 18:01:25 10° NNW
NOSS 3-4 (A) 4.4 17:56:24 10° WSW 18:01:20 36° NW 18:02:42 32° N
COSMOS 2455 4.0 17:55:36 10° NNW 17:59:04 31° N 17:59:04 31° N
NOSS 3-4 (C) 4.4 17:56:31 10° WSW 18:01:29 36° NW 18:02:51 32° N
Cosmos 1980 Rocket 4.2 17:58:10 10° N 17:59:30 16° N 17:59:30 16° N
Cosmos 967 Rocket 4.5 17:59:42 10° NW 18:05:46 77° N 18:05:46 77° N
ATLAS 3B R/B 4.5 18:09:07 10° NW 18:14:50 21° N 18:15:25 21° NNE
Cosmos 1697 Rocket 4.1 18:22:30 10° NNW 18:25:15 30° NNW 18:25:15 30° NNW
USA 215 3.5 18:29:08 60° NNW 18:29:08 60° NNW 18:35:29 10° WSW
NOSS 3-1 (C) 4.2 18:28:51 10° NW 18:34:15 58° NNW 18:34:15 58° NNW
Cosmos 1833 Rocket 4.2 18:31:20 10° SW 18:34:06 29° SW 18:34:06 29° SW
USA 267 4.3 19:04:50 40° W 19:04:50 40° W 19:09:26 10° WNW
